051  
ASUS42 KCAE 130610  
RWRCAE  
REGIONAL WEATHER ROUNDUP  
NATIONAL WEATHER SERVICE COLUMBIA SC  
200 AM EDT SAT AUG 13 2022  
 
NOTE: "FAIR" INDICATES FEW OR NO CLOUDS BELOW 12,000 FEET WITH NO  
SIGNIFICANT WEATHER AND/OR S TO VISIBILITY
.  
 
NOT ALL STATIONS ARE QUALITY CONTROLLED BY THE NATIONAL  
WEATHER SERVICE. USE DATA WITH CAUTION...ESPECIALLY  
DEWPOINT OBSERVATIONS.  
 
SCZ001>059-115-116-135>137-GAZ040-063>065-077-130700-   
..UPSTATE SOUTH CAROLINA
 
 
 
CITY SKY/WX TMP DP RH WIND PRES REMARKS
 
ANDERSON PTCLDY 73 65 75 NE8 30.08S  
6HR MIN TEMP: 73; 6HR MAX TEMP: 78;  
 
LIBERTY CLOUDY 73 66 78 NE6 30.09F  
6HR MIN TEMP: 71; 6HR MAX TEMP: 81;  
 
SPARTANBURG CLOUDY 72 63 73 CALM 30.10S  
CLEMSON CLOUDY 73 66 78 NE5 30.10S  
6HR MIN TEMP: 73; 6HR MAX TEMP: 82;  
 
GREENVILLE PTCLDY 74 65 73 NE8 30.11S  
6HR MIN TEMP: 74; 6HR MAX TEMP: 84;  
 
GREENWOOD MOCLDY 68 67 96 NE3 30.09F  
6HR MIN TEMP: 68; 6HR MAX TEMP: 74;  
 
GREER CLOUDY 72 65 78 NE6 30.10F  
6HR MIN TEMP: 72; 6HR MAX TEMP: 82;  
 
ROCK HILL MOCLDY 69 65 86 CALM 30.11R  
6HR MIN TEMP: 67; 6HR MAX TEMP: 74;  
 
LAURENS MOCLDY 70 66 88 NE3 30.08F  
 
   
..CENTRAL SOUTH CAROLINA
 
 
 
CITY SKY/WX TMP DP RH WIND PRES REMARKS
 
COLUMBIA APT PTCLDY 73 70 90 NE5 30.05F  
6HR MIN TEMP: 72; 6HR MAX TEMP: 79;  
 
COLUMBIA OWENS PTCLDY 72 69 90 CALM 30.06F  
6HR MIN TEMP: 72; 6HR MAX TEMP: 79; 6HR PCP: TRACE;  
 
MCENTIRE ANGB PTCLDY 68 67 99 CALM 30.04F  
6HR MIN TEMP: 67; 6HR MAX TEMP: 75;  
 
ORANGEBURG PTCLDY 70 70 100 CALM 30.05F  
6HR MIN TEMP: 70; 6HR MAX TEMP: 75;  
 
SUMTER SHAW CLEAR 69 68 94 CALM 30.04F  
6HR MIN TEMP: 69; 6HR MAX TEMP: 76;  
 
NEWBERRY PTCLDY 68 66 94 CALM 30.10F  
AIKEN FAIR 71 70 98 E5 30.07S  
6HR MIN TEMP: 71; 6HR MAX TEMP: 76;  
 
BARNWELL MOCLDY 72 70 94 CALM 30.04F  
MANNING FAIR 68 68 100 CALM 30.05F  
CAMDEN FAIR 70 70 100 CALM 30.07F  
LANCASTER MOCLDY 70 68 94 CALM 30.08F FOG  
WINNSBORO PTCLDY 66 64 94 CALM 30.07F  
 
   
..EASTERN AND COASTAL SOUTH CAROLINA
 
 
 
CITY SKY/WX TMP DP RH WIND PRES REMARKS
 
MYRTLE BEACH PTCLDY 71 70 96 N7 30.04F  
6HR MIN TEMP: 71; 6HR MAX TEMP: 73;  
 
N MYRTLE BCH PTCLDY 68 68 100 N5 30.04F  
6HR MIN TEMP: 68; 6HR MAX TEMP: 74;  
 
CONWAY FAIR 68 68 100 NE3 30.04F  
MARION FAIR 66 63 88 CALM 30.06S  
HARTSVILLE FAIR 68 66 94 CALM 30.07F  
FLORENCE PTCLDY 69 68 96 NE6 30.06F  
6HR MIN TEMP: 68; 6HR MAX TEMP: 77;  
 
DARLINGTON PTCLDY 68 68 100 MISG 30.08S  
6HR MIN TEMP: 68; 6HR MAX TEMP: 75;  
 
CHARLESTON APT MOCLDY 72 71 97 N3 30.01F  
6HR MIN TEMP: 72; 6HR MAX TEMP: 74;  
 
MOUNT PLEASANT MOCLDY 72 72 100 CALM 30.01F  
WALTERBORO PTCLDY 70 70 100 N3 30.03F  
BEAUFORT RAIN 75 73 93 N8 30.00F  
6HR MIN TEMP: 74; 6HR MAX TEMP: 77; 6HR PCP: TRACE;  
 
HILTON HEAD CLOUDY 75 75 100 CALM 30.00F  
 
   
..EASTERN GEORGIA
 
 
 
CITY SKY/WX TMP DP RH WIND PRES REMARKS
 
AUGUSTA BUSH F CLOUDY 72 71 97 E5 30.03F  
6HR MIN TEMP: 70; 6HR MAX TEMP: 73; 6HR PCP: TRACE;  
 
AUGUSTA DANIEL MOCLDY 72 71 97 E7 30.05S  
6HR MIN TEMP: 72; 6HR MAX TEMP: 77;  
 
THOMSON CLOUDY 72 71 95 E3 30.04F  
6HR MIN TEMP: 72; 6HR MAX TEMP: 79;  
 
WASHINGTON FAIR 71 71 98 NE5 30.05F  
6HR MIN TEMP: 71; 6HR MAX TEMP: 75;  
 
CLAXTON MOCLDY 75 74 96 CALM 30.01F  
6HR MIN TEMP: 75; 6HR MAX TEMP: 80;  
 
SYLVANIA CLOUDY 73 72 97 CALM 30.03F  
6HR MIN TEMP: 73; 6HR MAX TEMP: 74;  
 
STATESBORO CLOUDY 72 70 94 NE3 30.01F  
6HR MIN TEMP: 72; 6HR MAX TEMP: 73;  
 
SAVANNAH CLOUDY 74 72 93 N5 30.00F  
6HR MIN TEMP: 74; 6HR MAX TEMP: 76; 6HR PCP: TRACE;  
 
   
..SOUTHERN NORTH CAROLINA
 
 
 
CITY SKY/WX TMP DP RH WIND PRES REMARKS
 
CHARLOTTE PTCLDY 72 64 76 E7 30.10S  
6HR MIN TEMP: 72; 6HR MAX TEMP: 75;  
 
MONROE PTCLDY 69 65 86 NE3 30.09S  
6HR MIN TEMP: 68; 6HR MAX TEMP: 80;  
 
WADESBORO PTCLDY 68 67 95 CALM 30.09R FOG  
6HR MIN TEMP: 68; 6HR MAX TEMP: 78;  
 
ROCKINGHAM PTCLDY 68 66 94 CALM 30.08S  
6HR MIN TEMP: 68; 6HR MAX TEMP: 77;  
 
RUTHERFORDTON MOCLDY 70 66 88 N5 30.14S  
ASHEVILLE MOCLDY 65 62 90 CALM 30.17S  
6HR MIN TEMP: 65; 6HR MAX TEMP: 74;  
 

 
 
 
CLICK HERE TO GO TO PREVIOUS BULLETINS.

The Nexlab SC Page
The Nexlab GA Page Main Text Page